This demonstration page uses our WeatherBlox Daily Observations layout. Learn more.

Left ArrowRight Arrow

Hourly Observations for December 19, 2021

Temp ( °F °C ) Dew Point ( °F °C ) Humidity (%) Winds ( mph kmh ) Pressure ( in mb ) Visibility ( mi km ) Precip ( " mm )
12:53 am 00:53 Cloudy 43 6.1 29 -1.7 58 58 SSW 20 31 29.65 1004 10 16 0.00 0.00
1:53 am 01:53 Mostly Cloudy 41 5 30 -1.1 65 65 SW 20 31 29.66 1004 10 16 0.00 0.00
2:53 am 02:53 Clear 40 4.4 30 -1.1 68 68 SW 17 28 29.66 1005 10 16 0.00 0.00
3:53 am 03:53 Mostly Cloudy 39 3.9 31 -0.6 73 73 SW 14 22 29.68 1005 10 16 0.00 0.00
4:44 am 04:44 Cloudy 30 -1 27 -3 86 86 WNW 22 35 29.75 1007 10 16 0.00 0.00
4:53 am 04:53 Cloudy 29 -1.7 22 -5.6 75 75 WNW 21 33 29.76 1008 10 16 0.00 0.00
5:53 am 05:53 Cloudy 13 -10.6 5 -15 70 70 NW 23 37 29.87 1012 10 16 0.00 0.00
6:53 am 06:53 Cloudy 12 -11.1 4 -15.6 70 70 NW 20 31 29.94 1014 10 16 0.00 0.00
7:53 am 07:53 Cloudy 10 -12.2 3 -16.1 73 73 NW 12 19 30.01 1016 10 16 0.00 0.00
8:53 am 08:53 Cloudy with Light Snow 9 -12.8 3 -16.1 77 77 NNW 12 19 30.05 1018 3 5 0.00 0.00
9:06 am 09:06 Cloudy with Light Snow 10 -12.2 3 -16.1 73 73 NW 9 15 30.16 1021 2 3 0.00 0.00
9:12 am 09:12 Cloudy with Light Snow 10 -12 3 -16 72 72 WNW 9 15 30.16 1021 1 2 0.00 0.00
9:25 am 09:25 Cloudy with Light Snow 10 -12.2 5 -15 80 80 NW 13 20 30.19 1022 1 1 0.01 0.25
9:50 am 09:50 Mostly Cloudy with Snow 10 -12 5 -15 79 79 NW 10 17 30.18 1022 1 1 0.02 0.51
9:53 am 09:53 Mostly Cloudy with Light Snow 10 -12.2 5 -15 80 80 WNW 10 17 30.09 1019 1 1 0.02 0.51
9:57 am 09:57 Mostly Cloudy with Light Snow 11 -11.7 5 -15 77 77 NW 9 15 30.19 1022 1 2 0.01 0.25
10:05 am 10:05 Cloudy with Light Snow 11 -11.7 5 -15 77 77 NW 10 17 30.19 1022 2 3 0.01 0.25
10:16 am 10:16 Cloudy with Light Snow 12 -11.1 5 -15 73 73 NW 9 15 30.18 1022 4 6 0.01 0.25
10:30 am 10:30 Cloudy 12 -11.1 5 -15 73 73 NW 7 11 30.19 1022 10 16 0.01 0.25
10:53 am 10:53 Cloudy 13 -10.6 5 -15 70 70 NW 14 22 30.07 1018 10 16 0.01 0.25
11:53 am 11:53 Cloudy 13 -10.6 6 -14.4 74 74 NW 13 20 30.10 1019 10 16 0.00 0.00
12:53 pm 12:53 Cloudy 14 -10 7 -13.9 73 73 NW 9 15 30.11 1020 9 14 0.00 0.00
1:53 pm 13:53 Cloudy 14 -10 6 -14.4 71 71 NW 14 22 30.14 1021 9 14 0.00 0.00
2:33 pm 14:33 Cloudy with Light Snow 13 -10.6 6 -14.4 74 74 NW 15 24 30.29 1026 2 3 0.00 0.00
2:48 pm 14:48 Cloudy with Light Snow 12 -11 7 -14 79 79 NW 15 24 30.30 1026 5 8 0.00 0.00
2:53 pm 14:53 Cloudy with Light Snow 14 -10 6 -14.4 71 71 NW 10 17 30.17 1022 4 6 0.00 0.00
3:05 pm 15:05 Cloudy with Light Snow 13 -10.6 7 -13.9 77 77 NW 8 13 30.30 1026 2 3 0.00 0.00
3:19 pm 15:19 Cloudy with Light Snow 14 -10 8 -13.3 77 77 NW 8 13 30.29 1026 4 6 0.00 0.00
3:53 pm 15:53 Cloudy 14 -10 7 -13.9 73 73 W 6 9 30.19 1022 10 16 0.00 0.00
4:53 pm 16:53 Cloudy 13 -10.6 8 -13.3 81 81 SW 6 9 30.23 1024 10 16 0.00 0.00
5:05 pm 17:05 Cloudy 14 -10 9 -12.8 80 80 SW 7 11 30.33 1027 10 16 0.00 0.00
5:50 pm 17:50 Cloudy 12 -11 5 -15 73 73 NW 10 17 30.36 1028 10 16 0.00 0.00
5:53 pm 17:53 Cloudy 13 -10.6 5 -15 70 70 WNW 10 17 30.28 1026 10 16 0.00 0.00
6:53 pm 18:53 Mostly Cloudy 10 -12.2 3 -16.1 73 73 WNW 6 9 30.30 1026 10 16 0.00 0.00
7:53 pm 19:53 Cloudy 9 -12.8 4 -15.6 80 80 SSW 6 9 30.33 1027 10 16 0.00 0.00
8:53 pm 20:53 Cloudy 10 -12.2 5 -15 80 80 SW 8 13 30.35 1028 10 16 0.00 0.00
9:53 pm 21:53 Cloudy 9 -12.8 4 -15.6 80 80 SW 7 11 30.37 1028 10 16 0.00 0.00
10:53 pm 22:53 Mostly Cloudy 6 -14.4 2 -16.7 83 83 SSW 7 11 30.38 1029 10 16 0.00 0.00
11:53 pm 23:53 Mostly Clear -1 -18.3 -5 -20.6 82 82 SW 7 11 30.41 1030 10 16 0.00 0.00

Powered by AerisWeather